Location: Praha
(50.0830°N, 14.4670°E)
Time: 19:39:49
(UTC+02:00)

ISS - Pass Details

Date: 11 July 2019
Orbit: 409 x 418 km, 51.6° (Epoch: 20 July)

Event Time Altitude Azimuth Distance (km) Brightness Sun altitude
Rises 04:00:26 0° 275° (W) 2,344 -0.3 -8.3°
Reaches altitude 10° 04:02:32 10° 279° (W) 1,481 -1.3 -8.1°
Maximum altitude 04:05:51 64° 2° (N) 459 -3.3 -7.7°
Drops below altitude 10° 04:09:08 10° 84° (E) 1,477 -0.2 -7.4°
Sets 04:11:14 0° 88° (E) 2,338 0.8 -7.1°
